Le nostre stazioni meteo in Italia

Pubblicità
Il mio iltempo24.it
Palermo/Punta Raisi, Italia (16405): Temperatura & dewpoint: 21.04.2017 18:00:00 - 27.04.2017 18:00:00 (CEST)Palermo/Punta Raisi, Italia (16405): velocità del vento: 21.04.2017 18:00:00 - 27.04.2017 18:00:00 (CEST)Palermo/Punta Raisi, Italia (16405): direzione del vento: 21.04.2017 18:00:00 - 27.04.2017 18:00:00 (CEST)Palermo/Punta Raisi, Italia (16405): visibility: 21.04.2017 18:00:00 - 27.04.2017 18:00:00 (CEST)
Data & Tempo tt [°C] td [°C] ff [km/h] ff [kn] dd vv [km]
27.04.2017 18:00:00 21,0 16,0 13 7 NE 10
27.04.2017 17:00:00 21,0 15,0 21 11 NE 10
27.04.2017 16:00:00 28,0 8,0 29 16 SSO 8
27.04.2017 15:00:00 28,0 5,0 31 17 S 5
27.04.2017 14:00:00 25,0 10,0 37 20 SO 5
27.04.2017 13:00:00 27,0 4,0 34 18 SSO 7
27.04.2017 12:00:00 28,0 2,0 29 16 S 10
27.04.2017 11:00:00 26,0 2,0 41 22 S 10
27.04.2017 10:00:00 24,0 6,0 31 17 SSO 10
27.04.2017 09:00:00 22,0 9,0 26 14 SO 10
27.04.2017 08:00:00 26,0 0,0 34 18 S 10
27.04.2017 07:00:00 24,0 4,0 28 15 S 10
27.04.2017 06:00:00 25,0 6,0 24 13 S 10
27.04.2017 05:00:00 20,0 10,0 5 3 NE 10
27.04.2017 04:00:00 20,0 11,0 18 10 ENE 10
27.04.2017 03:00:00 19,0 12,0 11 6 E 10
27.04.2017 02:00:00 - - - - - -
27.04.2017 01:00:00 20,0 11,0 16 9 ENE 10
27.04.2017 00:00:00 21,0 8,0 21 11 ENE 10
26.04.2017 23:00:00 25,0 2,0 16 9 SSE 10
26.04.2017 22:00:00 22,0 10,0 5 3 NE 10
26.04.2017 21:00:00 22,0 12,0 9 5 NNE 10
26.04.2017 20:00:00 25,0 4,0 16 9 S 10
26.04.2017 19:00:00 26,0 12,0 16 9 SSE 10
26.04.2017 18:00:00 28,0 4,0 24 13 S 10
26.04.2017 17:00:00 28,0 4,0 35 19 S 10
26.04.2017 16:00:00 28,0 5,0 37 20 S 10
26.04.2017 15:00:00 29,0 6,0 29 16 S 10
26.04.2017 14:00:00 28,0 7,0 34 18 S 10
26.04.2017 13:00:00 27,0 8,0 37 20 S 10
26.04.2017 12:00:00 27,0 5,0 31 17 S 10
26.04.2017 11:00:00 26,0 6,0 24 13 S 10
26.04.2017 10:00:00 18,0 14,0 11 6 NNE 10
26.04.2017 09:00:00 18,0 14,0 13 7 NE 10
26.04.2017 08:00:00 17,0 13,0 8 4 NE 10
26.04.2017 07:00:00 15,0 11,0 13 7 ENE 10
26.04.2017 06:00:00 16,0 11,0 21 11 E 10
26.04.2017 05:00:00 - - - - - -
26.04.2017 04:00:00 15,0 8,0 13 7 SSO 10
26.04.2017 03:00:00 17,0 10,0 21 11 SO 10
26.04.2017 02:00:00 16,0 10,0 18 10 SO 10
26.04.2017 01:00:00 15,0 10,0 8 4 S 10
26.04.2017 00:00:00 15,0 11,0 11 6 S 10
25.04.2017 23:00:00 17,0 13,0 9 5 SO 10
25.04.2017 22:00:00 17,0 13,0 2 1 S 10
25.04.2017 21:00:00 18,0 13,0 5 3 SSE 10
25.04.2017 20:00:00 19,0 14,0 5 3 O 10
25.04.2017 19:00:00 20,0 15,0 5 3 NO 10
25.04.2017 18:00:00 20,0 14,0 9 5 OSO 10
25.04.2017 17:00:00 22,0 11,0 24 13 ENE 10
25.04.2017 16:00:00 21,0 12,0 29 16 ENE 10
25.04.2017 15:00:00 21,0 11,0 29 16 ENE 10
25.04.2017 14:00:00 20,0 11,0 26 14 ENE 10
25.04.2017 13:00:00 19,0 10,0 18 10 NE 10
25.04.2017 12:00:00 18,0 10,0 16 9 NNE 10
25.04.2017 11:00:00 17,0 12,0 16 9 NE 10
25.04.2017 10:00:00 17,0 12,0 9 5 N 10
25.04.2017 09:00:00 17,0 12,0 11 6 NE 10
25.04.2017 08:00:00 15,0 10,0 4 2 E 10
25.04.2017 07:00:00 12,0 7,0 8 4 S 10
25.04.2017 06:00:00 12,0 8,0 9 5 SE 10
25.04.2017 05:00:00 13,0 9,0 8 4 E 10
25.04.2017 04:00:00 13,0 8,0 2 1 S 10
25.04.2017 03:00:00 12,0 8,0 5 3 S 10
25.04.2017 02:00:00 13,0 9,0 4 2 SO 10
25.04.2017 01:00:00 13,0 9,0 8 4 S 10
25.04.2017 00:00:00 14,0 10,0 11 6 SSO 10
24.04.2017 23:00:00 16,0 10,0 15 8 SO 10
24.04.2017 22:00:00 16,0 11,0 21 11 SSO 10
24.04.2017 21:00:00 17,0 11,0 16 9 S 10
24.04.2017 20:00:00 18,0 12,0 15 8 ENE 10
24.04.2017 19:00:00 18,0 12,0 21 11 ENE 10
24.04.2017 18:00:00 19,0 12,0 26 14 ENE 10
24.04.2017 17:00:00 19,0 11,0 28 15 ENE 10
24.04.2017 16:00:00 19,0 10,0 28 15 ENE 10
24.04.2017 15:00:00 19,0 10,0 24 13 ENE 10
24.04.2017 14:00:00 19,0 10,0 18 10 NE 10
24.04.2017 13:00:00 17,0 10,0 15 8 NNE 10
24.04.2017 12:00:00 17,0 11,0 8 4 NNO 10
24.04.2017 11:00:00 16,0 11,0 8 4 O 10
24.04.2017 10:00:00 15,0 10,0 8 4 OSO 10
24.04.2017 09:00:00 15,0 9,0 8 4 NNE 10
24.04.2017 08:00:00 13,0 8,0 5 3 S 10
24.04.2017 07:00:00 10,0 6,0 5 3 S 10
24.04.2017 06:00:00 11,0 5,0 8 4 SSO 10
24.04.2017 05:00:00 11,0 5,0 8 4 S 10
24.04.2017 04:00:00 11,0 7,0 11 6 SSO 10
24.04.2017 03:00:00 12,0 7,0 9 5 SE 10
24.04.2017 02:00:00 13,0 8,0 9 5 S 10
24.04.2017 01:00:00 13,0 8,0 9 5 S 10
24.04.2017 00:00:00 15,0 8,0 16 9 SSO 10
23.04.2017 23:00:00 14,0 8,0 15 8 S 10
23.04.2017 22:00:00 14,0 8,0 13 7 SSE 10
23.04.2017 21:00:00 15,0 8,0 15 8 ENE 10
23.04.2017 20:00:00 16,0 8,0 21 11 ENE 10
23.04.2017 19:00:00 17,0 9,0 26 14 NE 10
23.04.2017 18:00:00 17,0 9,0 21 11 NE 10
23.04.2017 17:00:00 17,0 10,0 13 7 NNE 10
23.04.2017 16:00:00 17,0 10,0 11 6 N 10
23.04.2017 15:00:00 17,0 8,0 9 5 N 10
23.04.2017 14:00:00 17,0 7,0 13 7 NNO 10
23.04.2017 13:00:00 17,0 4,0 9 5 N 10
23.04.2017 12:00:00 17,0 6,0 9 5 ONO 10
23.04.2017 11:00:00 16,0 6,0 13 7 OSO 10
23.04.2017 10:00:00 15,0 7,0 15 8 OSO 10
23.04.2017 09:00:00 15,0 5,0 4 2 SO 10
23.04.2017 08:00:00 13,0 6,0 11 6 SSE 10
23.04.2017 07:00:00 11,0 6,0 16 9 S 10
23.04.2017 06:00:00 10,0 5,0 15 8 S 10
23.04.2017 05:00:00 11,0 6,0 15 8 SSE 10
23.04.2017 04:00:00 11,0 6,0 15 8 S 10
23.04.2017 03:00:00 11,0 6,0 15 8 S 10
23.04.2017 02:00:00 12,0 7,0 13 7 S 10
23.04.2017 01:00:00 13,0 7,0 11 6 SO 10
23.04.2017 00:00:00 15,0 8,0 11 6 O 10
22.04.2017 23:00:00 15,0 7,0 13 7 ONO 10
22.04.2017 22:00:00 15,0 7,0 15 8 ONO 10
22.04.2017 21:00:00 15,0 8,0 15 8 ONO 10
22.04.2017 20:00:00 15,0 8,0 18 10 NO 10
22.04.2017 19:00:00 16,0 8,0 24 13 NNO 10
22.04.2017 18:00:00 16,0 8,0 24 13 NO 10
22.04.2017 17:00:00 16,0 7,0 24 13 NNO 10
22.04.2017 16:00:00 16,0 7,0 21 11 NNO 10
22.04.2017 15:00:00 16,0 6,0 9 5 O 10
22.04.2017 14:00:00 15,0 8,0 11 6 O 10
22.04.2017 13:00:00 15,0 8,0 13 7 SO 10
22.04.2017 12:00:00 14,0 7,0 11 6 S 10
22.04.2017 11:00:00 13,0 7,0 13 7 SSO 10
22.04.2017 10:00:00 12,0 7,0 9 5 NO 10
22.04.2017 09:00:00 14,0 5,0 18 10 N 10
22.04.2017 08:00:00 14,0 5,0 13 7 NNO 10
22.04.2017 07:00:00 13,0 3,0 15 8 N 10
22.04.2017 06:00:00 13,0 4,0 13 7 N 10
22.04.2017 05:00:00 13,0 4,0 22 12 NNE 10
22.04.2017 04:00:00 13,0 2,0 18 10 NE 10
22.04.2017 03:00:00 13,0 1,0 24 13 NE 10
22.04.2017 02:00:00 13,0 3,0 24 13 NNE 10
22.04.2017 01:00:00 13,0 1,0 21 11 NE 10
22.04.2017 00:00:00 13,0 2,0 26 14 NNE 10
21.04.2017 23:00:00 13,0 2,0 22 12 NE 10
21.04.2017 22:00:00 13,0 4,0 21 11 NNE 10
21.04.2017 21:00:00 13,0 2,0 22 12 NNE 10
21.04.2017 20:00:00 13,0 2,0 22 12 NNE 10
21.04.2017 19:00:00 13,0 3,0 24 13 NNE 10
21.04.2017 18:00:00 14,0 3,0 28 15 NNE 10

tt = Temperatura
td = dewpoint
ff = velocità del vento
dd = direzione del vento
vv = visibility

Stazioni seguenti

WeatherPro
AMSI
MeteoEarth